Location: Eitze
(52.9840°N, 9.6894°E)
Time: 23:42:51
(UTC+00:00)

Cosmos 773 Rocket - Pass Details

Date: 19 May 2025
Orbit: 742 x 772 km, 74.1° (Epoch: 22 June)

Event Time Altitude Azimuth Distance (km) Brightness Sun altitude
Exits shadow 21:51:34 - 212° (SSW) 2,523 6.3 -14.7°
Reaches altitude 10° 21:52:14 10° 213° (SSW) 2,261 6.1 -14.7°
Maximum altitude 21:57:21 72° 297° (WNW) 786 4.2 -15.0°
Drops below altitude 10° 22:02:29 10° 23° (NNE) 2,267 7.2 -15.2°
Sets 22:04:51 0° 26° (NNE) 3,194 8.0 -15.3°
